Wind_Speed
63 66 66 64 55 32 31 34 25 12 6 6 4 12 12 17 22 13 15 34 37 63 57 53 53 44 41 41 43 45 46 43 43 41 39 37 36 33 30 28 27 28 27 26 25 23 23
64 68 67 66 61 36 31 30 30 15 8 9 13 10 9 9 14 11 15 29 36 58 69 52 47 50 45 41 40 41 41 41 39 38 38 36 34 32 30 28 27 27 28 27 27 24 24
63 67 67 67 69 47 37 34 32 28 12 10 13 13 23 20 17 13 13 23 33 60 67 60 50 45 41 39 38 39 38 37 38 37 36 35 34 32 31 30 29 28 29 28 28 27 26
65 67 67 66 70 57 43 40 42 34 21 9 14 16 23 23 20 16 21 28 33 49 59 55 48 45 43 40 38 39 38 37 37 36 35 35 34 33 32 31 30 30 29 30 29 28 27
72 67 67 65 65 66 60 45 39 41 38 14 20 23 22 21 17 12 18 29 30 42 50 48 42 43 37 38 35 34 36 38 36 35 35 33 32 31 31 31 30 30 28 28 28 27 29
75 65 67 64 60 66 60 61 51 43 45 34 26 24 18 14 13 15 18 32 26 35 44 53 47 34 36 36 37 36 36 38 36 35 34 33 32 31 31 32 31 31 31 30 30 31 32
71 73 65 65 56 62 63 57 60 59 52 48 37 21 21 29 21 27 25 31 29 35 46 40 26 31 33 30 34 30 30 33 36 35 34 33 32 32 31 31 31 31 31 32 33 33 34
66 71 66 65 63 52 60 67 60 56 53 50 41 39 42 35 47 40 37 26 33 53 37 28 36 33 29 25 24 28 33 35 37 36 36 35 34 32 31 32 32 32 33 35 36 37 38
62 66 70 62 63 59 59 57 62 58 51 45 42 43 42 40 30 24 31 32 37 41 40 40 37 32 31 25 23 25 32 34 35 36 35 35 35 34 33 32 32 34 36 37 38 39 40
59 60 64 67 58 58 56 53 54 52 51 53 51 45 43 38 41 42 35 32 46 29 34 40 33 28 22 22 24 23 25 27 32 35 36 35 34 33 33 33 34 34 36 38 38 40 40
53 57 58 62 62 54 53 51 47 50 50 47 45 54 48 46 47 45 38 35 31 27 28 28 27 29 27 26 20 19 21 26 32 32 30 30 31 31 31 32 33 34 35 36 35 34 33
50 51 54 55 58 58 50 50 48 44 47 48 47 46 46 50 46 39 34 30 26 28 26 27 27 26 23 23 22 20 20 19 21 25 26 25 22 24 26 27 27 27 28 29 31 30 29
49 48 48 49 51 53 55 48 45 44 40 44 45 42 43 41 40 36 38 40 37 34 34 31 28 23 24 22 21 20 18 20 20 21 21 19 19 18 18 19 21 23 25 25 26 24 25
50 46 46 44 45 46 48 50 47 41 39 38 35 38 34 35 34 27 25 25 26 28 29 25 23 20 21 18 21 20 21 18 19 17 17 15 12 12 13 14 16 18 20 23 26 24 22
47 47 42 42 40 41 41 42 44 45 42 36 33 33 33 32 31 27 24 26 25 27 26 24 23 21 20 18 16 17 14 12 12 10 8 8 7 7 9 11 13 13 11 12 12 12 12
42 44 44 39 38 36 36 37 37 38 39 42 42 40 38 36 33 30 27 29 31 31 31 29 25 23 19 16 17 16 13 11 12 9 6 5 7 5 4 3 5 8 11 12 14 13 10
38 40 42 41 35 34 30 31 33 32 32 32 34 35 36 37 37 36 32 32 32 32 30 27 25 26 27 26 25 22 19 18 16 14 11 8 6 4 2 5 9 11 14 15 16 19 20
34 35 37 39 36 31 29 25 25 27 27 26 27 26 27 29 28 27 26 26 26 27 26 25 24 23 22 21 20 18 17 16 13 11 8 5 3 1 2 5 7 10 13 14 16 16 16
31 32 32 34 34 32 28 24 22 19 21 22 23 22 21 21 22 23 22 22 23 23 23 22 22 21 21 19 18 16 15 13 12 10 7 6 5 5 6 9 11 11 17 18 21 19 14
29 30 30 30 31 33 28 25 21 20 15 15 16 18 19 19 19 19 19 19 20 20 20 20 20 19 18 17 15 14 13 11 10 9 7 7 7 5 8 8 6 7 12 17 18 14 18
24 28 30 29 28 29 28 25 23 18 16 16 10 10 12 13 14 15 15 15 15 15 16 15 15 15 14 14 14 13 13 13 12 12 11 9 10 11 13 13 13 13 12 15 16 13 13
23 24 27 27 25 27 26 24 21 21 15 14 12 11 7 6 7 8 9 10 10 11 11 10 11 11 11 11 10 10 9 9 10 10 9 9 8 10 12 14 15 14 16 16 17 17 19
24 23 25 26 24 22 24 24 19 21 14 15 11 9 10 10 5 4 3 3 3 4 5 5 6 6 6 6 5 4 4 3 3 4 4 5 5 5 8 10 12 11 13 15 17 16 19
25 25 24 26 25 21 19 22 21 17 11 15 12 10 6 6 6 7 5 3 4 4 4 3 4 5 3 2 2 2 3 4 4 4 5 5 6 8 6 9 10 13 16 17 18 17 19
30 29 28 27 28 26 22 19 21 20 13 13 11 11 10 7 6 6 4 3 5 5 4 1 1 2 2 3 4 5 4 4 6 8 8 9 10 10 10 9 10 17 17 17 20 23 22
33 34 33 32 32 29 26 19 21 23 19 14 13 11 8 8 8 9 10 8 7 6 4 4 4 2 2 5 6 8 11 11 11 14 16 17 17 16 17 15 16 19 21 18 20 19 22
39 38 38 37 34 33 31 27 21 22 23 20 17 16 12 9 8 8 9 10 10 11 12 9 7 8 8 9 10 10 12 13 15 17 20 20 20 22 26 24 19 24 27 25 25 26 26
45 42 40 39 38 34 32 31 29 24 22 22 23 20 20 16 13 11 9 10 11 11 12 14 11 10 10 9 11 12 13 13 15 16 21 22 23 22 24 26 27 25 27 29 31 30 32
49 47 48 45 44 41 40 36 35 33 27 28 26 26 26 25 21 18 18 17 18 17 13 11 15 17 17 19 18 17 16 15 14 14 22 22 25 24 19 20 27 30 29 32 33 32 34
Wind_Direction
11 15 14 13 19 24 23 23 28 27 53 91 145 185 190 172 160 135 166 180 187 176 166 187 194 196 202 197 195 199 203 206 211 212 213 216 219 218 217 222 228 233 237 233 232 228 225
14 20 19 19 26 27 30 32 30 34 55 114 137 128 138 191 161 131 150 168 177 177 173 160 160 175 184 181 182 188 198 202 207 209 210 212 214 214 217 219 227 232 232 227 227 221 221
17 23 24 24 32 32 44 43 37 38 52 124 142 114 120 133 110 156 160 163 177 183 174 172 179 187 194 197 189 187 189 194 202 206 209 209 211 214 217 220 223 228 228 227 225 222 224
21 25 28 30 33 44 53 50 43 43 49 120 129 127 116 112 101 118 156 160 171 185 172 162 155 167 168 183 183 181 184 189 197 203 208 209 211 212 216 217 220 225 226 225 225 230 237
25 25 32 34 35 40 49 47 43 42 44 99 136 133 124 121 107 125 144 155 165 175 194 175 151 159 171 176 178 183 186 189 191 201 205 209 212 213 217 217 218 221 224 229 236 242 249
26 28 34 39 41 41 47 51 49 46 59 82 121 117 127 107 107 127 134 160 156 166 177 167 171 178 183 182 178 178 183 186 187 195 202 208 211 214 218 218 218 222 227 234 242 248 254
28 31 32 39 41 41 47 43 47 54 65 72 111 106 105 103 109 109 124 146 152 151 145 169 170 172 172 180 185 186 184 190 188 193 199 207 211 214 219 224 227 231 236 241 248 253 259
29 31 34 39 42 44 43 46 52 56 58 76 86 93 89 106 110 91 99 131 142 135 128 121 157 167 162 177 186 187 187 192 191 193 200 204 211 215 220 225 231 238 243 248 253 259 264
29 33 34 38 44 50 50 50 54 53 58 71 80 87 91 100 104 92 80 104 150 128 86 104 139 145 149 153 156 179 186 189 193 195 202 206 212 217 222 228 236 243 249 255 261 267 271
29 33 36 36 42 47 52 57 54 54 54 56 63 81 86 92 90 87 88 130 139 114 103 107 127 136 148 167 175 178 186 189 199 200 204 211 216 223 229 236 244 250 256 262 267 271 274
32 30 35 38 39 45 50 52 56 57 58 57 57 63 85 84 91 95 100 102 102 113 107 117 127 135 125 139 136 163 187 199 201 202 206 213 222 229 236 244 252 257 261 265 267 271 273
33 33 33 37 40 41 47 53 56 59 61 62 64 67 77 81 87 92 88 99 107 102 102 110 118 132 138 146 155 160 158 173 182 194 203 208 216 226 235 242 250 256 262 266 270 274 274
31 33 35 37 39 42 43 48 56 59 62 69 71 66 70 83 86 94 96 96 97 95 98 103 107 118 128 141 150 157 167 174 177 182 184 193 204 215 227 239 252 264 270 273 273 279 283
31 31 31 35 39 41 44 46 50 58 64 65 70 79 75 69 76 77 86 89 94 104 106 107 106 106 113 126 137 143 151 154 161 167 175 186 208 228 245 253 263 271 279 283 285 288 288
32 30 32 30 35 40 44 46 49 56 62 69 72 78 83 77 80 80 78 82 80 93 99 102 107 115 123 128 137 141 150 152 151 156 168 186 204 227 249 269 279 283 295 300 301 304 301
28 28 28 31 29 34 40 44 47 51 58 68 72 74 76 78 84 86 83 83 87 89 91 91 94 99 113 121 128 126 130 132 136 139 152 192 212 226 229 261 294 295 301 309 310 311 295
21 26 26 26 28 28 35 40 43 45 50 55 65 71 74 80 82 84 86 86 85 84 83 85 87 88 91 96 102 105 106 109 114 115 115 117 133 159 244 275 287 296 296 295 293 293 294
13 21 25 23 24 27 28 34 40 45 44 47 51 57 63 70 76 80 81 80 79 82 83 83 85 89 94 99 102 107 111 111 111 114 118 110 104 87 323 305 303 302 299 299 294 296 297
3 11 22 22 19 19 25 27 33 38 47 47 46 51 52 55 62 67 68 68 69 72 76 78 82 83 84 86 87 87 88 87 87 82 71 54 28 353 323 312 308 306 300 304 300 301 310
350 358 11 20 17 12 16 22 22 29 33 45 53 50 51 52 53 58 63 64 65 68 70 71 73 73 74 74 71 67 61 55 49 40 31 18 21 360 356 10 358 318 297 309 326 322 295
340 345 356 7 13 11 7 12 15 17 24 32 27 46 56 56 58 58 60 66 68 71 70 71 71 67 62 58 54 50 48 44 42 40 32 22 9 7 9 8 10 5 2 355 359 356 6
325 333 339 353 2 5 2 2 11 10 14 17 25 29 16 36 50 61 62 54 55 58 57 62 65 62 57 54 53 51 52 47 51 48 43 29 29 360 5 0 0 2 357 352 350 349 352
309 318 326 338 350 352 356 356 2 4 7 9 8 18 27 28 6 349 360 48 61 54 44 28 28 42 38 39 46 37 28 31 6 4 15 19 13 6 336 335 336 339 339 344 339 342 348
298 305 313 320 332 336 337 343 345 343 352 358 358 352 1 7 19 31 21 330 312 308 303 331 346 351 343 354 355 340 325 334 343 345 330 328 332 335 335 340 324 330 328 328 329 330 326
291 295 300 308 315 321 323 318 332 333 324 337 347 345 339 334 337 331 332 15 36 39 16 10 313 333 330 326 315 314 303 310 311 313 315 319 319 324 322 333 329 314 318 317 322 316 316
286 290 295 301 307 308 311 310 305 320 310 307 319 323 327 321 312 314 306 297 292 289 291 304 312 304 286 264 273 290 298 298 301 303 304 309 311 304 306 310 317 302 302 299 302 302 300
279 284 289 293 298 301 302 304 304 304 307 296 290 295 298 287 283 286 279 283 296 301 295 280 280 282 288 293 289 284 281 279 287 292 291 291 295 300 298 298 299 291 295 306 307 308 306
277 279 281 285 287 291 294 297 299 300 289 294 285 280 275 275 268 262 254 258 271 287 299 280 286 281 294 288 293 292 292 296 298 301 295 298 299 300 309 314 311 307 312 311 310 312 309
272 274 278 280 284 287 290 291 294 294 286 282 287 280 276 269 263 260 254 248 258 266 263 254 262 270 280 283 284 282 287 285 287 284 288 298 293 298 314 331 313 314 314 313 313 313 308
Height
5678 5660 5640 5619 5601 5588 5582 5575 5567 5566 5565 5567 5568 5570 5572 5578 5583 5588 5592 5601 5612 5627 5638 5650 5661 5673 5682 5695 5706 5718 5730 5740 5750 5759 5766 5773 5779 5785 5790 5794 5798 5801 5804 5806 5808 5810 5812
5680 5662 5642 5622 5604 5593 5586 5580 5573 5568 5567 5569 5572 5574 5576 5579 5586 5591 5596 5602 5612 5623 5633 5647 5660 5670 5680 5692 5703 5714 5727 5737 5747 5755 5763 5769 5775 5781 5786 5790 5795 5798 5801 5803 5806 5808 5810
5682 5666 5648 5629 5613 5599 5591 5586 5580 5573 5569 5572 5575 5578 5580 5586 5588 5594 5600 5608 5613 5620 5629 5643 5657 5669 5679 5691 5702 5713 5723 5734 5744 5752 5759 5765 5771 5777 5782 5787 5791 5794 5798 5800 5803 5805 5807
5688 5672 5656 5639 5624 5607 5597 5591 5585 5577 5571 5571 5577 5584 5588 5592 5595 5599 5604 5610 5616 5620 5630 5647 5659 5669 5681 5692 5703 5712 5721 5731 5741 5749 5757 5763 5769 5775 5779 5784 5788 5791 5794 5797 5799 5802 5804
5695 5680 5665 5649 5636 5621 5608 5598 5590 5582 5572 5567 5577 5588 5594 5597 5600 5603 5607 5613 5619 5627 5632 5647 5659 5671 5683 5693 5704 5713 5721 5730 5738 5748 5756 5762 5768 5773 5778 5781 5785 5787 5791 5794 5797 5798 5799
5703 5689 5675 5661 5649 5636 5624 5612 5602 5592 5583 5574 5586 5596 5600 5603 5606 5608 5612 5619 5627 5635 5643 5656 5667 5677 5685 5694 5703 5712 5721 5729 5737 5746 5754 5761 5766 5770 5775 5778 5782 5784 5788 5790 5792 5794 5794
5713 5699 5687 5673 5662 5651 5639 5628 5619 5609 5601 5597 5599 5606 5610 5611 5612 5613 5618 5627 5636 5642 5653 5667 5673 5680 5687 5697 5705 5713 5722 5730 5736 5744 5752 5759 5764 5768 5772 5776 5780 5782 5784 5786 5787 5788 5789
5723 5709 5699 5687 5675 5664 5654 5645 5635 5627 5620 5617 5616 5616 5617 5620 5622 5623 5628 5637 5646 5654 5663 5670 5676 5684 5692 5698 5706 5713 5721 5730 5736 5743 5749 5756 5761 5765 5769 5773 5776 5778 5779 5780 5782 5782 5783
5732 5721 5709 5700 5689 5678 5670 5662 5653 5645 5638 5635 5632 5632 5630 5632 5635 5637 5641 5646 5651 5660 5665 5672 5680 5687 5696 5703 5709 5716 5723 5729 5735 5741 5748 5753 5759 5762 5765 5769 5771 5773 5774 5776 5776 5775 5775
5741 5731 5722 5711 5702 5693 5684 5676 5669 5663 5657 5653 5648 5645 5644 5645 5646 5650 5653 5657 5664 5671 5677 5683 5688 5694 5699 5704 5711 5717 5723 5730 5735 5740 5745 5751 5756 5760 5763 5766 5768 5770 5771 5770 5770 5769 5767
5751 5741 5731 5723 5714 5706 5698 5690 5684 5678 5673 5668 5666 5664 5661 5663 5662 5665 5669 5672 5675 5680 5683 5688 5693 5698 5702 5708 5715 5719 5723 5729 5733 5739 5745 5751 5755 5758 5761 5763 5765 5765 5765 5764 5763 5761 5760
5758 5752 5743 5733 5727 5719 5711 5704 5698 5693 5688 5685 5682 5680 5680 5679 5679 5679 5679 5681 5684 5688 5689 5694 5698 5703 5706 5710 5716 5721 5725 5730 5734 5739 5744 5749 5753 5755 5757 5759 5760 5759 5758 5758 5756 5756 5755
5767 5759 5753 5746 5737 5731 5724 5716 5711 5705 5702 5698 5696 5694 5692 5693 5692 5691 5692 5693 5695 5695 5697 5701 5703 5706 5709 5714 5718 5722 5727 5731 5736 5740 5743 5747 5750 5753 5754 5755 5755 5755 5755 5753 5752 5751 5750
5775 5768 5760 5755 5749 5743 5736 5731 5724 5719 5713 5711 5708 5706 5704 5703 5703 5702 5702 5704 5704 5705 5706 5708 5710 5713 5716 5720 5722 5726 5730 5733 5736 5739 5742 5746 5750 5751 5752 5753 5753 5753 5752 5749 5746 5745 5744
5782 5776 5770 5763 5758 5753 5747 5743 5738 5733 5727 5722 5720 5717 5714 5714 5712 5712 5712 5712 5711 5711 5713 5715 5716 5719 5722 5725 5728 5730 5733 5736 5738 5741 5744 5746 5748 5749 5750 5750 5751 5749 5748 5746 5743 5741 5739
5789 5783 5777 5771 5765 5760 5756 5752 5749 5745 5740 5736 5732 5728 5724 5723 5721 5721 5721 5720 5719 5720 5720 5722 5723 5724 5725 5727 5730 5732 5735 5737 5739 5742 5744 5745 5747 5748 5748 5749 5749 5748 5746 5744 5741 5739 5738
5794 5788 5783 5778 5773 5767 5762 5759 5756 5753 5750 5747 5742 5740 5737 5734 5732 5731 5731 5730 5728 5728 5727 5728 5730 5730 5730 5732 5733 5735 5737 5739 5740 5743 5745 5746 5748 5749 5748 5747 5745 5743 5741 5740 5738 5736 5733
5799 5793 5789 5783 5779 5774 5769 5765 5762 5759 5757 5755 5752 5750 5746 5743 5741 5739 5738 5737 5736 5734 5734 5734 5735 5735 5736 5737 5739 5740 5742 5743 5744 5745 5746 5747 5746 5746 5745 5744 5742 5741 5739 5737 5734 5733 5730
5799 5796 5792 5789 5783 5779 5775 5771 5768 5765 5762 5759 5757 5755 5753 5750 5748 5746 5744 5743 5742 5741 5740 5740 5740 5741 5741 5742 5743 5744 5745 5746 5746 5746 5746 5746 5746 5745 5745 5744 5741 5739 5737 5734 5730 5727 5727
5799 5797 5793 5791 5788 5783 5780 5776 5772 5769 5766 5764 5762 5760 5758 5756 5753 5751 5749 5748 5747 5746 5745 5745 5745 5745 5745 5746 5746 5746 5747 5747 5747 5746 5746 5746 5744 5743 5742 5740 5738 5736 5733 5730 5726 5723 5721
5800 5796 5794 5791 5789 5786 5783 5780 5776 5773 5770 5768 5765 5764 5762 5760 5758 5757 5755 5753 5751 5749 5748 5747 5746 5746 5747 5747 5746 5746 5746 5746 5746 5746 5745 5744 5743 5742 5740 5738 5736 5734 5732 5728 5725 5722 5719
5797 5796 5793 5791 5788 5786 5784 5782 5779 5776 5772 5770 5768 5765 5763 5762 5760 5759 5758 5757 5755 5754 5753 5751 5750 5749 5748 5748 5748 5747 5746 5746 5745 5745 5744 5743 5743 5740 5738 5736 5734 5732 5728 5726 5722 5719 5716
5793 5793 5791 5790 5788 5785 5783 5781 5779 5777 5774 5772 5769 5767 5765 5763 5761 5760 5759 5758 5756 5755 5755 5754 5753 5752 5751 5751 5749 5748 5748 5747 5746 5745 5743 5741 5740 5739 5737 5735 5733 5731 5728 5724 5721 5717 5714
5789 5789 5788 5787 5786 5785 5782 5780 5778 5775 5773 5771 5769 5767 5764 5763 5762 5760 5758 5757 5756 5755 5754 5753 5753 5752 5752 5750 5749 5748 5747 5746 5745 5744 5742 5741 5739 5737 5736 5733 5731 5728 5724 5721 5718 5714 5710
5782 5782 5783 5783 5782 5782 5781 5778 5777 5774 5772 5770 5767 5766 5764 5762 5760 5759 5758 5756 5755 5754 5753 5751 5750 5750 5749 5749 5748 5746 5745 5743 5742 5741 5739 5737 5735 5733 5732 5730 5729 5724 5721 5718 5714 5710 5706
5774 5774 5775 5776 5776 5775 5775 5775 5774 5772 5769 5767 5765 5763 5761 5760 5758 5757 5756 5755 5754 5752 5751 5751 5750 5748 5747 5746 5745 5744 5743 5741 5740 5737 5735 5733 5732 5730 5726 5723 5722 5717 5713 5711 5708 5705 5700
5764 5765 5766 5766 5768 5769 5768 5768 5767 5767 5766 5763 5762 5761 5758 5756 5754 5753 5751 5752 5751 5750 5748 5747 5745 5745 5744 5743 5742 5740 5738 5738 5737 5735 5732 5729 5727 5724 5720 5718 5719 5712 5708 5707 5704 5703 5696
5754 5755 5756 5758 5759 5760 5761 5760 5759 5760 5759 5758 5757 5755 5754 5752 5751 5749 5746 5746 5745 5745 5743 5743 5743 5741 5739 5737 5736 5735 5734 5732 5731 5729 5725 5724 5721 5718 5715 5711 5709 5708 5704 5701 5698 5694 5690
5742 5745 5744 5746 5748 5749 5751 5751 5750 5750 5750 5751 5750 5749 5748 5747 5746 5743 5742 5740 5738 5738 5736 5736 5735 5734 5733 5732 5731 5729 5727 5725 5724 5722 5718 5717 5713 5711 5711 5707 5700 5698 5696 5692 5688 5686 5682